MEASAT-3A

Last updated on Wed Jul 02 2025 00:02:44 GMT+0000 (Coordinated Universal Time)

1 35362U 09032A 25182.53794980 -.00000107 00000+0 00000+0 0 9993 2 35362 0.0239 42.0683 0002950 51.7591 179.6585 1.00271923 4518
UTC large
Height (km)
Speed (km/s)
/
Latitude / Longitude
Inclination (degrees)
Orbital Period (minutes)
Azimuth
Elevation
Range (km)
Doppler Factor

Next 0 passes for location: London (51.5072 / 0.1276)

Sorry there are no passes over London.